Latest Weather Observations for Redcliffe

IDQ60901

Issued at 9:25 pm EST Tuesday 2 September 2014 (issued every 10 minutes, with the page automatically refreshed every 10 minutes)

About weather observations | Map of Brisbane area stations | Latest observations for Brisbane area | Other Formats
Station Details ID: 040958 Name: REDCLIFFE Lat: -27.22 Lon: 153.09 Height: 12.6 m
Data from the previous 72 hours. | See also: Recent months at Redcliffe
Date/Time
EST
Tmp

°C
App
Tmp
°C
Dew
Point
°C
Rel
Hum
%
Delta-T

°C
Wind Press
QNH
hPa
Press
MSL
hPa
Rain
since
9 am
mm
Dir
 
Spd
km/h
Gust
km/h
Spd
kts
Gust
kts
02/09:00pm 18.8 11.4 1.8 32 7.7 WSW 30 50 16 27 1012.3 1012.2 0.0
02/08:30pm 19.3 11.0 2.2 32 7.8 WSW 35 57 19 31 1011.9 1011.8 0.0
02/08:00pm 20.5 12.7 1.9 29 8.6 WSW 32 57 17 31 1011.3 1011.2 0.0
02/07:57pm 20.7 13.3 2.0 29 8.7 WSW 30 57 16 31 1011.2 1011.1 0.0
02/07:30pm 21.2 14.4 3.0 30 8.6 WSW 28 37 15 20 1010.7 1010.6 0.0
02/07:04pm 21.4 14.8 4.0 32 8.4 WSW 28 48 15 26 1010.3 1010.2 0.0
02/07:00pm 21.5 15.6 3.7 31 8.6 WSW 24 35 13 19 1010.3 1010.2 0.0
02/06:30pm 21.9 16.0 4.0 31 8.7 WSW 24 33 13 18 1009.7 1009.6 0.0
02/06:00pm 22.6 17.3 3.2 28 9.3 WSW 20 39 11 21 1009.1 1009.0 0.0
02/05:30pm 23.8 17.6 2.0 24 10.3 WSW 24 35 13 19 1008.3 1008.2 0.0
02/05:00pm 25.3 18.8 0.0 19 11.7 WSW 24 39 13 21 1007.7 1007.6 0.0
02/04:30pm 26.9 20.7 -0.2 17 12.6 W 22 37 12 20 1006.6 1006.5 0.0
02/04:00pm 28.0 21.6 0.7 17 13.0 WNW 24 37 13 20 1006.2 1006.1 0.0
02/03:30pm 26.9 22.6 6.9 28 10.6 NNW 19 30 10 16 1006.3 1006.2 0.0
02/03:00pm 26.0 20.9 6.1 28 10.3 N 22 35 12 19 1006.3 1006.2 0.0
02/02:30pm 27.1 22.6 7.0 28 10.6 N 20 30 11 16 1006.8 1006.7 0.0
02/02:00pm 26.1 21.7 7.2 30 10.0 NNW 20 28 11 15 1007.7 1007.6 0.0
02/01:30pm 24.5 20.4 10.0 40 8.0 N 22 28 12 15 1008.3 1008.2 0.0
02/01:00pm 24.9 21.7 11.1 42 7.8 NNE 19 26 10 14 1009.1 1009.0 0.0
02/12:30pm 23.9 21.0 10.9 44 7.2 N 17 20 9 11 1010.0 1009.9 0.0
02/12:00pm 23.1 20.2 10.9 46 6.8 N 17 28 9 15 1010.3 1010.2 0.0
02/11:30am 21.9 19.9 11.6 52 5.7 N 13 20 7 11 1011.1 1011.0 0.0
02/11:00am 21.0 18.0 10.8 52 5.6 NNW 17 26 9 14 1011.7 1011.6 0.0
02/10:30am 20.6 17.8 10.1 51 5.7 N 15 20 8 11 1012.3 1012.2 0.0
02/10:00am 20.1 16.9 9.9 52 5.5 N 17 20 9 11 1013.0 1012.9 0.0
02/09:30am 19.4 15.7 9.3 52 5.3 N 19 26 10 14 1013.6 1013.5 0.0
02/09:00am 19.1 15.7 10.4 57 4.7 N 19 26 10 14 1013.8 1013.7 0.0
02/08:30am 18.6 16.2 10.2 58 4.5 N 13 20 7 11 1014.2 1014.1 0.0
02/08:00am 17.8 15.2 10.7 63 3.8 N 15 19 8 10 1014.3 1014.2 0.0
02/07:30am 17.4 15.4 11.4 68 3.3 N 13 17 7 9 1014.4 1014.3 0.0
02/07:00am 16.7 15.4 11.2 70 3.0 N 9 13 5 7 1014.2 1014.1 0.0
02/06:30am 16.6 14.8 10.7 68 3.1 N 11 13 6 7 1014.1 1014.0 0.0
02/06:00am 16.3 14.0 10.6 69 3.0 N 13 19 7 10 1014.2 1014.1 0.0
02/05:30am 16.6 14.4 10.7 68 3.1 N 13 15 7 8 1014.1 1014.0 0.0
02/05:00am 16.7 15.2 10.5 67 3.3 N 9 13 5 7 1013.9 1013.8 0.0
02/04:30am 16.8 14.8 10.2 65 3.5 N 11 13 6 7 1014.0 1013.9 0.0
02/04:00am 16.3 14.4 10.4 68 3.1 NNW 11 15 6 8 1014.1 1014.0 0.0
02/03:30am 16.3 14.1 10.8 70 2.9 NNW 13 15 7 8 1013.9 1013.8 0.0
02/03:00am 16.7 14.7 10.3 66 3.4 NNW 11 15 6 8 1014.2 1014.1 0.0
02/02:30am 17.2 14.6 10.8 66 3.4 N 15 20 8 11 1014.1 1014.0 0.0
02/02:00am 17.1 14.2 10.9 67 3.3 N 17 26 9 14 1014.5 1014.4 0.0
02/01:30am 17.3 14.1 11.3 68 3.2 N 19 26 10 14 1014.7 1014.6 0.0
02/01:00am 17.2 13.9 11.5 69 3.1 N 20 26 11 14 1015.1 1015.0 0.0
02/12:30am 17.4 14.3 11.7 69 3.1 N 19 24 10 13 1015.4 1015.3 0.0
02/12:00am 17.7 14.5 11.9 69 3.2 N 20 26 11 14 1015.5 1015.4 0.0
 
Date/Time
EST
Tmp

°C
App
Tmp
°C
Dew
Point
°C
Rel
Hum
%
Delta-T

°C
Wind Press
QNH
hPa
Press
MSL
hPa
Rain
since
9 am
mm
Dir
 
Spd
km/h
Gust
km/h
Spd
kts
Gust
kts
01/11:30pm 17.8 14.8 12.0 69 3.2 N 19 24 10 13 1015.8 1015.7 0.0
01/11:00pm 18.0 15.2 12.7 71 3.0 N 19 20 10 11 1015.9 1015.8 0.0
01/10:30pm 17.9 15.7 13.2 74 2.6 N 17 22 9 12 1015.9 1015.8 0.0
01/10:00pm 18.3 16.2 13.6 74 2.7 N 17 24 9 13 1016.1 1016.0 0.0
01/09:30pm 18.6 16.2 14.3 76 2.5 N 20 26 11 14 1016.2 1016.1 0.0
01/09:00pm 18.9 16.3 14.8 77 2.4 N 22 28 12 15 1016.4 1016.3 0.0
01/08:30pm 19.0 16.9 15.3 79 2.2 N 20 28 11 15 1016.4 1016.3 0.0
01/08:00pm 19.3 17.3 15.4 78 2.3 N 20 26 11 14 1016.3 1016.2 0.0
01/07:30pm 19.5 17.5 15.4 77 2.4 N 20 30 11 16 1016.4 1016.3 0.0
01/07:00pm 19.7 17.7 15.4 76 2.5 N 20 28 11 15 1016.1 1016.0 0.0
01/06:30pm 19.7 16.9 15.4 76 2.5 NNE 24 30 13 16 1015.7 1015.6 0.0
01/06:00pm 19.8 16.8 14.8 73 2.9 NNE 24 28 13 15 1015.4 1015.3 0.0
01/05:30pm 20.1 16.5 14.2 69 3.4 NNE 26 30 14 16 1015.4 1015.3 0.0
01/05:00pm 20.5 17.0 14.4 68 3.5 NNE 26 33 14 18 1015.5 1015.4 0.0
01/04:30pm 20.8 16.6 14.7 68 3.6 NNE 30 35 16 19 1015.1 1015.0 0.0
01/04:00pm 21.1 17.1 14.0 64 4.1 NNE 28 35 15 19 1014.7 1014.6 0.0
01/03:30pm 21.4 17.1 14.3 64 4.1 NNE 30 35 16 19 1014.8 1014.7 0.0
01/03:00pm 21.6 17.6 14.0 62 4.4 NE 28 33 15 18 1015.1 1015.0 0.0
01/02:30pm 21.5 17.4 13.9 62 4.4 NE 28 30 15 16 1015.4 1015.3 0.0
01/02:00pm 21.5 19.1 14.4 64 4.2 NE 20 26 11 14 1015.7 1015.6 0.0
01/01:30pm 21.1 18.5 13.8 63 4.2 NE 20 24 11 13 1016.3 1016.2 0.0
01/01:00pm 21.0 18.7 14.2 65 4.0 ENE 19 22 10 12 1016.6 1016.5 0.0
01/12:30pm 20.6 19.0 13.8 65 3.9 ENE 15 19 8 10 1017.0 1016.9 0.0
01/12:00pm 20.6 18.9 14.7 69 3.5 ENE 17 19 9 10 1017.3 1017.2 0.0
01/11:30am 20.9 19.4 14.3 66 3.8 E 15 17 8 9 1017.9 1017.8 0.0
01/11:00am 21.0 19.9 13.2 61 4.4 E 11 11 6 6 1018.6 1018.5 0.0
01/10:30am 20.4 19.6 14.1 67 3.6 ESE 11 13 6 7 1019.2 1019.1 0.0
01/10:00am 20.7 19.9 12.9 61 4.4 SE 9 11 5 6 1019.6 1019.5 0.0
01/09:30am 20.2 19.6 13.4 65 3.9 SSE 9 11 5 6 1019.8 1019.8 0.0
01/09:00am 19.9 19.3 13.6 67 3.6 SSE 9 11 5 6 1019.8 1019.8 0.0
01/08:30am 19.5 18.7 13.9 70 3.2 SSE 11 11 6 6 1019.8 1019.8 0.0
01/08:00am 18.0 17.3 13.1 73 2.7 S 9 11 5 6 1019.6 1019.6 0.0
01/07:30am 16.6 16.8 13.1 80 2.0 SW 4 7 2 4 1019.3 1019.3 0.0
01/07:00am 15.2 15.8 13.1 87 1.2 W 2 6 1 3 1019.1 1019.1 0.0
01/06:30am 13.9 12.9 12.3 90 0.9 WNW 9 9 5 5 1018.8 1018.8 0.0
01/06:00am 13.8 13.1 12.0 89 1.0 WSW 7 9 4 5 1018.8 1018.8 0.0
01/05:30am 14.5 15.0 12.7 89 1.0 SW 2 7 1 4 1018.4 1018.4 0.0
01/05:00am 14.4 14.8 12.4 88 1.1 SW 2 7 1 4 1018.0 1018.0 0.0
01/04:30am 14.4 13.4 12.4 88 1.1 SW 9 9 5 5 1018.2 1018.2 0.0
01/04:00am 14.6 13.3 12.5 87 1.1 WSW 11 11 6 6 1018.1 1018.1 0.0
01/03:30am 15.0 14.5 12.5 85 1.4 WSW 7 9 4 5 1017.9 1017.9 0.0
01/03:00am 15.3 14.5 12.8 85 1.4 WSW 9 11 5 6 1018.1 1018.1 0.0
01/02:30am 15.2 14.8 12.9 86 1.3 W 7 11 4 6 1018.1 1018.1 0.0
01/02:00am 15.1 14.3 13.0 87 1.2 SSW 9 11 5 6 1018.2 1018.2 0.0
01/01:30am 14.7 14.1 12.4 86 1.3 W 7 9 4 5 1018.4 1018.4 0.0
01/01:00am 15.3 14.9 13.0 86 1.3 WSW 7 9 4 5 1018.4 1018.4 0.0
01/12:30am 15.3 14.5 13.0 86 1.3 W 9 11 5 6 1018.6 1018.6 0.0
01/12:00am 15.9 16.1 13.2 84 1.5 W 4 7 2 4 1018.7 1018.7 0.0
 
Date/Time
EST
Tmp

°C
App
Tmp
°C
Dew
Point
°C
Rel
Hum
%
Delta-T

°C
Wind Press
QNH
hPa
Press
MSL
hPa
Rain
since
9 am
mm
Dir
 
Spd
km/h
Gust
km/h
Spd
kts
Gust
kts
31/11:30pm 15.7 15.3 13.0 84 1.5 W 7 7 4 4 1018.8 1018.8 0.0
31/11:00pm 16.1 15.8 13.2 83 1.6 W 7 9 4 5 1018.9 1018.9 0.0
31/10:30pm 16.5 16.2 13.4 82 1.7 W 7 9 4 5 1018.8 1018.8 0.0
31/10:00pm 16.8 16.8 13.5 81 1.9 WNW 6 7 3 4 1018.8 1018.8 0.0
31/09:30pm 16.7 17.8 13.6 82 1.7 CALM 0 0 0 0 1018.6 1018.6 0.0
31/09:00pm 16.9 18.1 13.8 82 1.8 CALM 0 0 0 0 1018.6 1018.6 0.0
31/08:30pm 17.2 18.4 13.9 81 1.9 CALM 0 0 0 0 1018.6 1018.6 0.0
31/08:00pm 17.3 18.4 13.6 79 2.1 CALM 0 0 0 0 1018.4 1018.4 0.0
31/07:30pm 18.1 18.3 14.2 78 2.2 ESE 6 7 3 4 1018.4 1018.4 0.0
31/07:00pm 18.3 17.9 14.2 77 2.4 E 9 11 5 6 1018.0 1018.0 0.0
31/06:30pm 18.5 18.5 14.2 76 2.5 E 7 9 4 5 1017.7 1017.7 0.0
31/06:00pm 18.7 18.2 13.8 73 2.8 E 9 11 5 6 1017.4 1017.4 0.0
31/05:30pm 19.2 17.7 13.2 68 3.4 E 13 15 7 8 1017.0 1017.0 0.0
31/05:00pm 19.6 18.2 13.3 67 3.6 E 13 17 7 9 1016.7 1016.7 0.0
31/04:30pm 20.0 18.9 13.2 65 3.9 E 11 11 6 6 1016.4 1016.4 0.0
31/04:00pm 20.3 18.8 13.0 63 4.1 ENE 13 17 7 9 1016.1 1016.1 0.0
31/03:30pm 20.7 18.4 10.5 52 5.5 NE 13 17 7 9 1015.8 1015.8 0.0
31/03:00pm 21.2 18.5 9.1 46 6.4 NE 13 15 7 8 1015.8 1015.8 0.0
31/02:30pm 21.4 18.7 9.0 45 6.6 ENE 13 15 7 8 1015.7 1015.7 0.0
31/02:00pm 21.2 18.6 9.4 47 6.3 NE 13 15 7 8 1015.8 1015.8 0.0
31/01:30pm 20.9 17.7 10.1 50 5.8 ENE 17 19 9 10 1016.2 1016.2 0.0
31/01:00pm 20.9 17.7 9.8 49 6.0 ENE 17 19 9 10 1016.5 1016.5 0.0
31/12:30pm 20.7 18.0 10.2 51 5.7 ENE 15 17 8 9 1017.0 1017.0 0.0
31/12:00pm 20.7 17.9 9.9 50 5.8 ENE 15 17 8 9 1017.5 1017.5 0.0
31/11:30am 20.8 18.4 10.0 50 5.8 ENE 13 15 7 8 1017.9 1017.9 0.0
31/11:00am 21.5 19.5 10.0 48 6.2 E 11 11 6 6 1018.1 1018.1 0.0
31/10:30am 21.0 19.0 8.6 45 6.5 E 9 11 5 6 1018.7 1018.7 0.0
31/10:00am 21.4 19.7 9.9 48 6.2 SSE 9 11 5 6 1019.0 1019.0 0.0
31/09:30am 20.8 19.3 12.0 57 4.9 SSE 11 13 6 7 1018.9 1018.9 0.0
31/09:00am 20.1 18.7 12.1 60 4.5 SSE 11 13 6 7 1019.2 1019.2 0.0
31/08:30am 18.8 16.8 11.6 63 4.0 S 13 15 7 8 1019.3 1019.3 0.0
31/08:00am 17.8 16.2 11.6 67 3.4 S 11 13 6 7 1019.1 1019.1 0.0
31/07:30am 16.3 13.8 11.2 72 2.7 S 15 17 8 9 1019.1 1019.1 0.0
31/07:00am 14.8 13.0 10.8 77 2.1 SSW 11 13 6 7 1018.8 1018.8 0.0
31/06:30am 13.5 12.0 10.5 82 1.6 SW 9 13 5 7 1018.6 1018.6 0.0
31/06:00am 13.1 11.0 9.9 81 1.6 WSW 11 13 6 7 1018.3 1018.3 0.0
31/05:30am 13.7 12.7 10.3 80 1.8 WSW 6 9 3 5 1018.0 1018.0 0.0
31/05:00am 14.2 13.0 10.4 78 2.0 SW 7 11 4 6 1018.0 1018.0 0.0
31/04:30am 14.4 12.5 10.6 78 2.0 WSW 11 11 6 6 1017.9 1017.9 0.0
31/04:00am 14.4 12.8 10.2 76 2.2 W 9 11 5 6 1017.8 1017.8 0.0
31/03:30am 14.9 13.3 10.3 74 2.4 W 9 11 5 6 1017.7 1017.7 0.0
31/03:00am 14.9 13.3 10.1 73 2.5 W 9 11 5 6 1017.7 1017.7 0.0
31/02:30am 15.0 13.5 10.4 74 2.4 W 9 13 5 7 1017.9 1017.9 0.0
31/02:00am 14.9 13.3 10.3 74 2.4 W 9 9 5 5 1018.0 1018.0 0.0
31/01:30am 14.9 13.4 10.5 75 2.3 W 9 11 5 6 1018.2 1018.2 0.0
31/01:00am 14.7 13.2 10.5 76 2.2 W 9 11 5 6 1018.3 1018.3 0.0
31/12:30am 14.5 13.0 10.5 77 2.1 W 9 11 5 6 1018.4 1018.4 0.0
31/12:00am 14.4 12.9 10.4 77 2.1 W 9 9 5 5 1018.5 1018.5 0.0
 
Date/Time
EST
Tmp

°C
App
Tmp
°C
Dew
Point
°C
Rel
Hum
%
Delta-T

°C
Wind Press
QNH
hPa
Press
MSL
hPa
Rain
since
9 am
mm
Dir
 
Spd
km/h
Gust
km/h
Spd
kts
Gust
kts
30/11:30pm 14.6 13.0 10.2 75 2.3 W 9 11 5 6 1018.5 1018.5 0.0
30/11:00pm 14.9 12.9 10.1 73 2.5 W 11 13 6 7 1018.6 1018.6 0.0
30/10:30pm 14.9 13.1 10.7 76 2.2 WNW 11 13 6 7 1018.6 1018.6 0.0
30/10:00pm 15.0 12.7 10.4 74 2.4 WNW 13 15 7 8 1018.6 1018.6 0.0
30/09:30pm 15.3 13.5 10.9 75 2.3 WNW 11 13 6 7 1018.5 1018.5 0.0

Latest Capital City Observations: Canberra | Sydney | Melbourne | Brisbane | Adelaide | Perth | Hobart | Darwin

Other Formats:

Comma delimited format used in spreadsheet applications
http://www.bom.gov.au/fwo/IDQ60901/IDQ60901.95591.axf

JavaScript Object Notation format (JSON) in row-major order
http://www.bom.gov.au/fwo/IDQ60901/IDQ60901.95591.json